Regional Weather Roundup
Issued by NWS Green Bay, WI

Home | Current Version | Previous Version | Text Only | Print | Product List | Glossary On
Versions: 1 2 3 4 5 6 7 8 9 10 11 12 13 14 15 16 17 18 19 20 21 22 23 24 25 26 27 28 29 30 31 32 33 34 35 36 37 38 39 40 41 42 43 44 45 46 47 48 49 50
000
ASUS43 KGRB 201310
RWRGRB

NORTH-CENTRAL AND NORTHEAST WISCONSIN REGIONAL WEATHER ROUNDUP
NATIONAL WEATHER SERVICE GREEN BAY WI
800 AM CDT MON OCT 20 2014

WIZ005-009-010>012-018-019-201400-
NORTH CENTRAL WISCONSIN

CITY           SKY/WX    TMP DP  RH WIND       PRES   REMARKS
IRONWOOD       CLOUDY    46  43  87 NW5       29.85R
MANITOWISH WTR CLOUDY    44  43  98 N3        29.86R
ARBOR VITAE    CLOUDY    46  43  91 N6        29.86R
EAGLE RIVER    MIX PCPN  43  43 100 N6        29.85R
LAND O LAKES   CLOUDY    44  42  95 N5        29.86R FOG
RHINELANDER    LGT RAIN  44  43  96 N3        29.86R FOG
PHILLIPS       CLOUDY    42  40  93 W3        29.87S
ANTIGO         CLOUDY    43  42  97 NW8       29.85R
TOMAHAWK       CLOUDY    42  41  94 CALM      29.87R
MERRILL        CLOUDY    44  42  92 NW5       29.86R
$$

WIZ013-073-201400-
NORTHEAST WISCONSIN

CITY           SKY/WX    TMP DP  RH WIND       PRES   REMARKS
IRON MOUNTAIN  CLOUDY    46  42  86 NW9       29.82R
MARINETTE      CLOUDY    46  41  81 NW6       29.80R
OCONTO         CLOUDY    46  44  95 NW5       29.81R
$$

WIZ017-030-035>037-045-201400-
CENTRAL WISCONSIN

CITY           SKY/WX    TMP DP  RH WIND       PRES   REMARKS
MEDFORD        CLOUDY    41  40  95 NW3       29.87S
WAUSAU         MOCLDY    43  41  93 NW6       29.86R
MOSINEE        NOT AVBL
MARSHFIELD     PTCLDY    44  40  85 NW8       29.88R
WISC RAPIDS    CLEAR     44  41  89 NW7       29.89R
STEVENS POINT  CLEAR     42  40  91 NW3       29.88R
WAUPACA        MOCLDY    48  45  87 NW8       29.85R
SHAWANO        CLOUDY    45  43  93 CALM      29.84R
CLINTONVILLE   CLOUDY    45  43  93 W6        29.84R
$$

WIZ038-039-048-051-201400-
FOX VALLEY

CITY           SKY/WX    TMP DP  RH WIND       PRES   REMARKS
NWS GREEN BAY  CLOUDY    48  44  86 NW8       29.82R
APPLETON       MOCLDY    45  43  93 NW12      29.82R
OSHKOSH        MOCLDY    48  44  86 NW9       29.82R
FOND DU LAC    MOCLDY    46  42  86 N7        29.83R
$$

WIZ022-050-052-201400-
EAST CENTRAL WISCONSIN

CITY           SKY/WX    TMP DP  RH WIND       PRES   REMARKS
STURGEON BAY   MOCLDY    48  43  81 N6        29.81R
MANITOWOC      CLOUDY    49  45  86 NW8       29.80R
SHEBOYGAN      PTCLDY    48  43  82 NW13      29.80R
$$

LMZ563-521-522-541>543-201400-
LAKESHORE

STATION/POSITION TIME  TEMP    WIND        PRES    VSBY  WAVE
                       AIR SEA DIR/SP/G                  HT/PER
                 (UTC) (F)     (DEG/KT/KT) (MB)    (MI)  (FT/S)
SHEBOYGAN LKSHOR 1300   49 50  300/ 14/ 17 1009.4R
KEWAUNEE LKSHORE 1300   47     300/  4/  7 1008.0R
TWO RIVERS CG    1200   46                 1008.4      6   0
NORTHPORT PIER   1300   50     340/ 13/ 16 1009.1S
N MID LAKE BUOY  1300   49 52  320/ 14/ 17 1008.6R         3/ 7
STURGEON BAY CG  1200   48 48  330/  4     1009.0   1 1/4  0
CHAMBERS ISLAND  1300   50     340/  8/ 10 1009.5R
MENOMINEE LKSHOR 1300   48     320/  9/ 12 1009.8R
$$



USA.gov is the U.S. government's official web portal to all federal, state and local government web resources and services.